Location: Street
(51.1247°N, 2.7429°W)
Time: 14:53:58
(UTC+01:00)

STRAND 1 - Visible Passes

Search period start: 16 April 2024 00:00
Search period end: 26 April 2024 00:00
Orbit: 764 x 779 km, 98.4° (Epoch: 15 April)

Date Brightness Start Highest point End Pass type
(mag) Time Alt. Az. Time Alt. Az. Time Alt. Az.
16 Apr ? 21:14:50 10° N 21:18:54 25° WNW 21:22:59 10° WSW visible
17 Apr ? 05:17:56 10° ESE 05:22:00 25° ENE 05:26:04 10° N visible
17 Apr ? 20:39:32 10° N 20:44:21 43° WNW 20:49:08 10° SW visible
18 Apr ? 04:44:54 10° E 04:47:36 15° NE 04:50:18 10° NNE visible
18 Apr ? 21:45:01 10° NNW 21:47:59 16° NW 21:50:58 10° W visible
19 Apr ? 21:09:20 10° N 21:13:33 27° WNW 21:17:46 10° WSW visible
20 Apr ? 05:12:45 10° ESE 05:16:39 23° ENE 05:20:34 10° N visible
21 Apr ? 04:39:52 10° E 04:42:16 13° NE 04:44:40 10° NNE visible
21 Apr ? 21:39:25 10° NNW 21:42:39 17° NW 21:45:53 10° W visible
22 Apr ? 21:03:51 10° N 21:08:11 29° WNW 21:12:32 10° WSW visible
23 Apr ? 05:07:33 10° ESE 05:11:17 21° ENE 05:15:01 10° N visible
23 Apr ? 22:10:22 10° NNW 22:11:36 11° NW 22:12:51 10° WNW visible
24 Apr ? 04:34:54 10° ENE 04:36:56 12° NE 04:38:58 10° NNE visible
24 Apr ? 21:33:51 10° NNW 21:37:18 19° NW 21:40:45 10° W visible
25 Apr ? 20:58:20 10° N 21:02:48 32° WNW 21:07:17 10° WSW visible
